FW9594 Weather Reports


Display with metric or nautical units.
time (UTC)temp
F
wind
direction
speed
MPH
gust
MPH
rain 1hr
in
rain 24hr
in
rain mn
in
humidity
%
barometer
mb
20260509123522 68 28 5.0 9.0 0.00 0.02 0.00 89 1009.6
20260509122522 68 49 2.0 6.0 0.00 0.04 0.00 90 1009.8
20260509121522 67 23 3.0 5.0 0.00 0.05 0.00 90 1009.6
20260509120522 67 265 1.0 4.0 0.00 0.15 0.00 90 1009.6
20260509115958 67 49 3.0 5.0 0.00 0.15 0.00 90 1009.4
20260509114522 67 285 3.0 5.0 0.00 0.15 0.00 89 1009.4
20260509114005 67 37 1.0 6.0 0.00 0.15 0.00 88 1009.2
20260509112523 67 75 2.0 6.0 0.00 0.15 0.00 87 1008.7
20260509111523 68 281 3.0 5.0 0.00 0.15 0.00 86 1008.7
20260509110523 68 337 2.0 5.0 0.00 0.15 0.00 86 1008.4
20260509105522 68 271 4.0 5.0 0.00 0.15 0.00 86 1008.2
20260509104522 68 286 2.0 3.0 0.00 0.15 0.00 87 1007.9
20260509103523 68 278 0.0 0.0 0.00 0.16 0.00 87 1007.9
20260509102522 68 276 0.0 2.0 0.00 0.29 0.00 87 1007.8
20260509102000 68 276 0.0 2.0 0.00 0.35 0.00 87 1007.7
20260509100523 68 279 0.0 2.0 0.00 0.35 0.00 86 1007.7
20260509095522 69 281 0.0 1.0 0.00 0.36 0.00 86 1007.7
20260509095002 69 333 0.0 0.0 0.00 0.37 0.00 85 1007.4
20260509093525 69 37 0.0 0.0 0.00 0.37 0.00 84 1007.2
20260509092524 70 345 0.0 0.0 0.00 0.37 0.00 82 1007.3
20260509091524 71 231 0.0 1.0 0.00 0.37 0.00 81 1006.9
20260509090524 70 320 0.0 4.0 0.00 0.37 0.00 83 1007.0
20260509085524 71 279 0.0 3.0 0.00 0.37 0.00 85 1007.4
20260509085009 71 299 1.0 4.0 0.00 0.37 0.00 85 1007.1
20260509083524 70 51 0.0 4.0 0.00 0.38 0.00 85 1005.6
20260509083008 70 221 2.0 6.0 0.00 0.38 0.00 85 1005.1
20260509081523 70 175 1.0 7.0 0.00 0.40 0.00 86 1005.5
20260509080524 71 214 1.0 4.0 0.00 0.40 0.00 86 1006.2
20260509075524 71 138 2.0 6.0 0.00 0.41 0.00 86 1006.9
20260509074955 70 212 3.0 6.0 0.00 0.42 0.00 86 1007.6
20260509073524 70 171 1.0 7.0 0.00 0.42 0.00 87 1008.3
20260509072524 70 230 2.0 6.0 0.00 0.43 0.00 87 1008.3
20260509071524 70 227 2.0 6.0 0.00 0.45 0.00 87 1008.7
20260509070523 69 233 2.0 6.0 0.00 0.45 0.00 88 1009.1
20260509065525 69 317 0.0 6.0 0.00 0.45 0.00 88 1009.3
20260509065031 69 219 1.0 6.0 0.00 0.45 0.00 88 1009.5
20260509063523 69 296 4.0 6.0 0.00 0.45 0.00 88 1009.9
20260509062524 69 292 4.0 5.0 0.00 0.45 0.00 89 1009.9
20260509061524 69 274 1.0 4.0 0.00 0.45 0.00 88 1009.8
20260509061441 69 180 1.0 2.0 0.00 0.45 0.00 87 1009.5
20260509055523 69 230 0.0 0.0 0.00 0.45 0.00 86 1009.8
20260509054523 69 154 0.0 0.0 0.00 0.45 0.00 85 1009.5
20260509053959 69 114 0.0 0.0 0.00 0.45 0.00 85 1010.1
20260509052524 70 113 0.0 1.0 0.00 0.45 0.00 83 1010.4
20260509051523 70 37 0.0 2.0 0.00 0.45 0.00 83 1010.6
20260509050523 70 8 2.0 5.0 0.00 0.45 0.00 84 1010.8
20260509045959 70 38 3.0 4.0 0.00 0.45 0.45 85 1010.8
20260509044523 70 103 0.0 0.0 0.00 0.45 0.45 83 1009.5
20260509043523 71 103 0.0 0.0 0.00 0.45 0.45 82 1009.5
20260509042523 71 103 0.0 0.0 0.00 0.45 0.45 81 1009.6
20260509041523 71 103 0.0 0.0 0.00 0.45 0.45 81 1009.3
20260509040524 71 104 0.0 4.0 0.00 0.45 0.45 80 1009.0
20260509035524 72 214 0.0 1.0 0.00 0.45 0.45 80 1008.9
20260509034523 72 243 0.0 1.0 0.00 0.45 0.45 79 1008.6
20260509033523 73 157 0.0 3.0 0.00 0.45 0.45 79 1009.0
20260509032523 72 51 0.0 0.0 0.00 0.45 0.45 79 1009.9
20260509031524 72 44 0.0 6.0 0.00 0.45 0.45 80 1009.9
20260509030524 72 28 1.0 4.0 0.00 0.45 0.45 81 1009.4
20260509025524 72 87 0.0 2.0 0.00 0.45 0.45 81 1008.8
20260509024523 71 261 0.0 0.0 0.00 0.45 0.45 81 1008.4
20260509023524 71 142 0.0 0.0 0.00 0.45 0.45 81 1008.3
20260509022523 71 145 0.0 2.0 0.00 0.45 0.45 81 1007.9
20260509021524 71 197 0.0 2.0 0.00 0.45 0.45 80 1007.6
20260509020522 72 118 0.0 2.0 0.00 0.45 0.45 80 1007.6
20260509015521 72 48 1.0 4.0 0.00 0.45 0.45 79 1007.3
20260509014521 72 147 0.0 1.0 0.00 0.45 0.45 79 1007.4
20260509014004 73 221 0.0 2.0 0.00 0.45 0.45 78 1007.5
20260509013004 73 259 0.0 1.0 0.00 0.45 0.45 77 1007.8
20260509011521 73 102 0.0 2.0 0.00 0.45 0.45 77 1007.9
20260509010520 73 257 0.0 0.0 0.00 0.45 0.45 77 1007.8
20260509005958 73 266 0.0 1.0 0.00 0.45 0.45 76 1007.7
20260509004520 73 240 0.0 4.0 0.00 0.45 0.45 75 1007.5
20260509003520 74 162 0.0 2.0 0.00 0.45 0.45 73 1007.5
20260509002522 75 250 0.0 2.0 0.00 0.45 0.45 72 1007.1
20260509001521 76 197 0.0 2.0 0.00 0.45 0.45 71 1007.2
20260509000524 76 193 1.0 3.0 0.00 0.45 0.45 70 1007.1
20260508235521 76 250 1.0 5.0 0.00 0.45 0.45 71 1007.3
20260508235007 76 227 1.0 3.0 0.00 0.45 0.45 69 1007.3
20260508233522 76 292 0.0 4.0 0.00 0.45 0.45 70 1007.6
20260508232957 76 125 1.0 6.0 0.00 0.45 0.45 68 1007.6
20260508231522 78 240 2.0 5.0 0.00 0.45 0.45 66 1007.6
20260508231003 78 228 1.0 5.0 0.00 0.45 0.45 65 1007.6
20260508225521 80 220 2.0 4.0 0.00 0.45 0.45 61 1007.7
20260508224521 81 306 0.0 3.0 0.00 0.45 0.45 61 1007.6
20260508223522 80 233 1.0 5.0 0.00 0.45 0.45 62 1007.7
20260508222522 80 186 2.0 4.0 0.00 0.45 0.45 61 1007.8
20260508221522 80 283 2.0 6.0 0.00 0.45 0.45 61 1007.8
20260508220521 79 100 2.0 6.0 0.00 0.45 0.45 64 1007.8
20260508215521 79 189 2.0 6.0 0.00 0.45 0.45 62 1007.7
20260508214523 79 274 1.0 5.0 0.00 0.45 0.45 62 1007.8
20260508214008 79 193 1.0 6.0 0.00 0.45 0.45 63 1007.7
20260508212523 79 286 2.0 5.0 0.00 0.45 0.45 60 1007.9
20260508211522 81 240 1.0 5.0 0.00 0.45 0.45 61 1008.2
20260508210522 81 281 1.0 3.0 0.00 0.45 0.45 61 1008.2
20260508205523 80 217 1.0 6.0 0.00 0.45 0.45 62 1008.1
20260508205003 78 250 1.0 3.0 0.00 0.45 0.45 64 1008.3
20260508204448 77 199 1.0 3.0 0.00 0.45 0.45 66 1008.9
20260508202959 75 233 1.0 5.0 0.00 0.45 0.45 67 1009.8
20260508201522 75 274 1.0 4.0 0.00 0.45 0.45 67 1010.1
20260508200523 75 266 1.0 3.0 0.00 0.45 0.45 67 1010.1
20260508195524 76 190 1.0 6.0 0.00 0.45 0.45 67 1010.0
20260508194522 76 271 2.0 4.0 0.00 0.45 0.45 65 1010.0
20260508193523 76 258 2.0 5.0 0.00 0.45 0.45 65 1010.1
20260508192522 77 251 1.0 4.0 0.00 0.45 0.45 65 1010.2
20260508191958 77 192 1.0 4.0 0.00 0.45 0.45 63 1010.1
20260508190522 78 212 1.0 4.0 0.00 0.45 0.45 63 1010.2
20260508185522 78 238 2.0 4.0 0.00 0.45 0.45 61 1010.3
20260508184524 79 199 1.0 6.0 0.00 0.45 0.45 61 1010.3
20260508183523 80 207 1.0 4.0 0.00 0.45 0.45 62 1010.4
20260508183006 79 292 1.0 4.0 0.00 0.45 0.45 64 1010.5
20260508181523 78 131 1.0 4.0 0.00 0.45 0.45 64 1010.7
20260508180522 78 278 2.0 6.0 0.00 0.45 0.45 65 1011.1
20260508180004 77 223 1.0 6.0 0.00 0.45 0.45 68 1011.2
20260508174956 76 276 5.0 9.0 0.00 0.45 0.45 62 1011.3
20260508173522 77 117 1.0 9.0 0.00 0.45 0.45 64 1011.5
20260508172523 76 251 2.0 6.0 0.00 0.45 0.45 64 1011.6
20260508171522 76 224 1.0 3.0 0.00 0.45 0.45 64 1011.6
20260508170522 75 178 1.0 4.0 0.00 0.45 0.45 65 1011.8
20260508165522 74 45 1.0 4.0 0.00 0.45 0.45 67 1012.0
20260508164522 73 152 1.0 5.0 0.00 0.45 0.45 66 1012.2
20260508163523 73 125 1.0 3.0 0.00 0.45 0.45 67 1012.5
20260508162523 73 62 1.0 4.0 0.00 0.45 0.45 67 1012.7
20260508161523 72 106 1.0 4.0 0.00 0.45 0.45 70 1012.9
20260508160522 70 320 1.0 2.0 0.00 0.45 0.45 72 1013.0
20260508155522 69 282 0.0 2.0 0.00 0.45 0.45 73 1013.0
20260508154523 68 219 0.0 3.0 0.00 0.45 0.45 74 1013.1
20260508153522 68 231 0.0 4.0 0.00 0.45 0.45 74 1013.3
20260508152522 67 286 0.0 3.0 0.00 0.45 0.45 78 1013.2
20260508151522 67 230 0.0 1.0 0.00 0.45 0.45 77 1013.2
20260508150521 67 149 0.0 0.0 0.00 0.45 0.45 77 1013.6
20260508145521 67 226 0.0 0.0 0.00 0.45 0.45 76 1013.5
20260508144520 67 148 0.0 1.0 0.00 0.45 0.45 79 1013.6
20260508143520 66 176 0.0 0.0 0.00 0.45 0.45 84 1013.4
20260508143003 65 233 0.0 0.0 0.00 0.45 0.45 85 1013.9
20260508142012 64 244 0.0 0.0 0.00 0.45 0.45 84 1013.9
20260508140520 64 110 0.0 0.0 0.00 0.45 0.45 87 1013.8
20260508135520 63 97 0.0 0.0 0.00 0.45 0.45 88 1013.6
20260508135002 63 76 0.0 0.0 0.01 0.45 0.45 88 1013.7
20260508134452 62 137 0.0 1.0 0.02 0.45 0.45 90 1013.4
20260508132519 62 210 0.0 1.0 0.04 0.45 0.45 91 1013.6
20260508131519 62 216 0.0 1.0 0.05 0.45 0.45 91 1013.7
20260508130520 61 230 0.0 1.0 0.15 0.45 0.45 91 1013.5
20260508125521 61 230 0.0 0.0 0.15 0.30 0.45 91 1013.7
20260508124520 61 230 0.0 0.0 0.14 0.30 0.44 91 1013.9